Regional Weather Roundup
Issued by NWS Sioux Falls, SD

Home | Current Version | Previous Version | Graphics & Text | Print | Product List | Glossary On
Versions: 1 2 3 4 5 6 7 8 9 10 11 12 13 14 15 16 17 18 19 20 21 22 23 24 25 26 27 28 29 30 31 32 33 34 35 36 37 38 39 40 41 42 43 44 45 46 47 48 49 50
167
ASUS43 KFSD 010210
RWRFSD

WEATHER ROUNDUP FOR SE SOUTH DAKOTA/SW MINNESOTA/NW IOWA
NATIONAL WEATHER SERVICE SIOUX FALLS SD
900 PM CDT SAT APR 30 2016

NOTE: "FAIR" INDICATES FEW OR NO CLOUDS BELOW 12,000 FEET WITH NO
SIGNIFICANT WEATHER AND OR OBSTRUCTIONS TO VISIBILITY.


SDZ038>040-050-052>070-010300-
SOUTHEAST SOUTH DAKOTA

CITY           SKY/WX    TMP DP  RH WIND       PRES   REMARKS
BROOKINGS      CLOUDY    46  40  79 E7        30.06R
CHAMBERLAIN    LGT RAIN  45  43  93 E13G18    30.09R
HURON          CLOUDY    50  38  63 NE9       30.08R
MADISON        LGT RAIN  41  41 100 NE13      30.06R
MITCHELL       LGT RAIN  45  43  93 NE8       30.08R
SIOUX FALLS    CLOUDY    44  40  85 NE17      30.03R
WINNER         LGT RAIN  43  39  86 NE23G31   30.07R
YANKTON        CLOUDY    43  39  87 NE21G29   29.98R
$$

MNZ071-072-080-081-089-090-097-098-010300-
SOUTHWEST MINNESOTA

CITY           SKY/WX    TMP DP  RH WIND       PRES   REMARKS
FAIRMONT       CLOUDY    45  34  65 NE16      30.03R
JACKSON        LGT RAIN  43  41  93 NE18G24   30.03R
LUVERNE        CLOUDY    43  37  81 E16G28    30.02S
MARSHALL       CLOUDY    47  41  80 E6        30.08R
MONTEVIDEO     CLOUDY    52  36  54 E18G25    30.11R
REDWOOD FALLS  CLOUDY    49  40  71 E3        30.06R
TRACY          LGT RAIN  45  43  91 E10       30.06R
WINDOM         LGT RAIN  45  43  93 E17       30.04R
WORTHINGTON    LGT RAIN  42  40  92 NE18G25   30.03R
$$

IAZ001>003-012>014-020>022-031-032-NEZ013-014-SDZ071-010300-
NORTHWEST IOWA

CITY           SKY/WX    TMP DP  RH WIND       PRES   REMARKS
CHEROKEE       LGT RAIN  43  43  99 NE18G32   29.95R
DENISON        CLOUDY    46  45  93 E18G26    29.86R FOG
ESTHERVILLE    LGT RAIN  42  41  96 NE21G31   30.00R
LE MARS        CLOUDY    45  43  93 NE23G29   29.96R FOG
ORANGE CITY    CLOUDY    43  41  93 E18G30    29.97R
SHELDON        CLOUDY    43  43 100 NE23G33   29.97R FOG
SIOUX CITY     CLOUDY    46  42  86 NE22G30   29.91R
SPENCER        CLOUDY    43  40  89 NE25G33   29.98S
STORM LAKE     CLOUDY    43  43 100 NE29G36   29.92R FOG
$$

ABBREVIATIONS USED IN REMARKS
   TC - TEMPERATURE IN CELSIUS
  WCI - WIND CHILL INDEX
   HX - HEAT INDEX
  VSB - VISIBILITY





USA.gov is the U.S. government's official web portal to all federal, state and local government web resources and services.